SL-4 R/B (44834 NORAD) Tracking and Keplerian Element Data

This shows tracking and keplerian element data for the satellite.

Feedback or suggestion? Click here.




ElementValue
Catalog44834
NameSL-4 R/B
Epoch Orbit59
Epoch Day344.02918574
Epoch Year2019
RAAN208.1207
Inclination51.6479
Eccentricity0.0006639
Argument of Perigee105.4196
Mean Anonmoly44.7332
Mean Motion16.47079844
Decay Rate0.10210507
L11 44834U 19085B 19344.02918574 .10210507 12567-4 18984-3 0 9997
L22 44834 51.6479 208.1207 0006639 105.4196 44.7332 16.47079844 594

Live tracking and technical data element details for SL-4 R/B (NORAD 44834). SL-4 R/B can be tracked NOW for your location showing map with azimuth and elevation plus other details from your city location.

Track the satellite on the map from your city or location and see movement details for azimuth, elevation, latitude, longitude, range, height, and movement on the map or in text.







IsCatalogInMostPopularTable: catalog: 44834, numindb: 8
Update: records affected: 1



GetName: 44834 SL-4 R/B

Hit Count: updated at: Fri, 24 Jan 2020 13:44:02 GMT